Wind_Speed
8 10 12 13 12 11 10 10 11 12 11 10 10 9 9 8 7 5 3 3 3 4 6 7 11 15 17 18 16 14 12 11 10 7 6 4 6 13 20 23 21 18 16
6 8 10 12 12 11 10 9 10 11 12 13 13 12 10 9 8 6 4 3 3 4 5 7 10 16 19 20 18 16 13 11 10 6 4 2 2 6 13 18 19 17 16
3 6 8 11 11 11 9 8 9 10 11 13 15 15 13 10 8 6 5 4 3 4 5 6 8 14 20 22 21 18 15 13 10 7 5 3 2 3 7 13 15 16 15
1 3 7 9 11 10 8 7 8 9 11 13 15 17 15 12 9 7 6 5 4 4 5 6 7 10 19 23 23 21 17 14 11 8 7 5 4 4 5 8 11 14 14
4 3 5 8 10 9 8 6 7 8 10 13 15 17 16 13 10 8 7 7 5 5 5 6 5 5 13 21 23 22 19 16 13 10 9 7 6 6 6 6 7 9 11
7 4 4 6 8 8 7 6 5 7 10 13 15 16 16 14 12 9 8 8 6 6 6 6 5 2 8 16 21 21 20 17 14 13 11 10 9 8 8 7 6 6 8
8 5 3 4 6 7 6 5 5 6 8 11 14 17 17 15 12 10 9 8 7 6 5 5 5 1 5 11 15 18 18 16 14 14 15 14 11 10 10 8 6 6 6
8 7 4 3 4 6 6 5 5 5 7 10 13 16 17 15 13 11 11 9 7 7 5 4 3 1 4 9 13 15 15 14 14 14 14 14 13 13 12 10 7 7 7
9 8 6 5 4 5 7 6 6 6 7 9 12 15 16 15 13 11 10 9 7 7 6 5 4 2 4 8 12 13 13 13 11 10 9 8 8 9 11 10 8 7 7
10 10 8 7 5 5 6 7 7 6 7 8 10 12 14 14 13 12 10 8 7 7 7 6 6 6 6 8 10 12 13 12 10 9 8 7 6 5 7 7 7 7 7
11 11 10 9 7 6 6 6 7 6 6 7 9 11 13 14 13 12 10 9 8 8 7 7 7 9 10 10 11 13 14 12 10 10 10 9 8 7 7 8 8 9 8
11 12 12 12 10 9 9 9 8 7 7 7 8 11 13 14 13 11 9 9 10 9 8 7 8 10 13 14 14 14 14 13 12 12 13 13 12 11 9 9 9 10 10
12 13 13 13 13 12 11 11 10 9 8 8 8 10 13 14 13 12 9 9 11 11 9 7 8 10 13 16 17 16 16 16 16 17 17 17 16 15 13 12 12 11 11
12 13 14 14 14 14 14 13 13 12 10 9 8 9 12 14 15 14 11 9 11 12 10 8 9 11 13 15 17 18 19 19 20 21 21 21 20 19 18 16 15 13 13
13 14 15 16 17 17 16 15 15 14 13 11 9 8 10 12 13 13 12 12 11 11 10 8 9 11 13 14 15 17 19 20 21 22 23 23 23 23 22 20 18 16 15
15 16 17 18 19 18 18 16 15 14 13 12 10 8 9 11 13 14 14 14 14 12 10 8 9 11 13 15 16 17 19 19 19 20 21 22 22 23 23 22 20 19 17
17 17 17 18 18 17 16 15 14 14 13 11 10 9 8 9 12 14 14 14 15 14 13 11 10 11 14 16 17 17 18 18 19 19 19 20 21 22 22 21 20 19 18
18 18 17 16 16 15 14 14 14 14 13 12 11 11 10 9 10 13 14 14 14 15 14 12 12 13 15 17 18 17 17 17 19 20 19 19 19 20 20 20 19 18 18
19 19 17 16 16 15 14 14 15 16 15 14 13 13 13 11 11 12 14 15 15 16 16 14 12 14 17 19 19 18 17 17 18 18 18 17 17 18 19 18 16 16 17
18 19 19 18 18 18 17 15 16 16 16 16 15 14 13 13 13 14 15 16 17 19 19 18 16 15 19 21 21 19 17 17 17 17 17 15 16 17 17 17 17 16 17
19 19 20 20 20 20 19 17 16 15 15 15 15 14 14 15 16 18 18 18 20 21 21 21 20 18 19 21 22 19 17 16 16 17 16 15 16 16 16 17 18 17 18
21 20 21 21 21 21 20 18 16 15 14 14 14 14 15 16 18 20 21 21 23 24 24 24 24 21 20 21 22 20 18 16 16 16 16 16 16 16 16 17 19 19 20
23 22 22 22 22 22 21 19 16 15 14 14 15 17 18 20 21 22 23 24 25 26 26 26 25 23 21 22 23 21 20 18 17 16 15 15 16 16 17 18 19 21 22
26 25 24 23 22 22 21 18 17 15 15 15 17 19 21 22 23 24 24 24 25 27 27 27 25 23 22 23 24 23 22 20 18 16 15 14 15 16 16 18 19 21 23
29 29 26 24 22 21 20 17 17 16 17 19 20 22 23 23 24 24 24 24 25 26 27 27 25 24 24 25 26 25 24 23 21 18 16 14 14 14 15 16 18 20 23
35 32 26 24 22 21 18 16 16 17 19 21 22 23 24 24 23 23 23 24 25 26 26 26 25 25 25 27 28 27 26 24 22 20 18 16 15 14 14 15 16 18 21
Wind_Direction
39 34 31 32 34 38 47 51 46 39 33 28 20 13 7 3 2 2 349 310 274 258 256 252 236 226 222 217 217 218 220 218 202 194 213 225 242 236 233 234 235 236 238
33 31 25 25 27 29 38 46 42 35 29 24 18 11 6 4 5 6 2 336 303 282 275 267 245 231 224 218 215 214 215 214 201 196 205 215 258 236 225 224 226 228 230
22 22 20 20 23 25 32 42 39 31 24 20 15 11 6 4 4 360 358 351 320 299 293 288 264 236 224 218 214 211 212 214 209 208 206 214 237 229 210 208 212 217 221
287 355 12 17 21 24 31 38 36 28 22 16 13 12 9 5 2 353 343 342 329 311 310 309 291 244 223 217 213 209 211 215 214 214 209 217 230 221 211 207 212 217 221
242 294 359 17 21 24 30 34 31 25 21 18 14 12 13 11 6 351 337 335 327 316 315 327 316 256 220 216 213 209 209 214 216 213 216 225 233 223 213 212 217 221 225
235 262 338 16 23 24 28 29 21 17 21 23 17 13 14 15 12 1 341 329 324 315 312 327 338 280 211 212 213 210 209 214 221 221 228 237 240 226 216 213 217 218 220
229 243 299 1 19 18 18 19 12 13 19 21 18 15 14 14 12 5 350 330 319 314 308 317 341 340 195 200 203 204 209 221 228 235 240 240 232 220 214 213 216 213 208
228 233 264 313 356 4 6 2 359 6 13 16 16 14 15 12 8 0 350 337 319 312 304 298 316 328 190 195 199 208 217 230 239 244 237 234 226 219 212 211 217 216 214
227 232 255 281 321 346 359 355 352 355 4 11 13 15 16 12 5 356 348 340 326 310 302 283 266 241 194 201 207 214 223 228 226 223 219 220 229 229 218 212 220 224 220
227 232 248 265 286 322 349 358 353 349 353 2 10 16 17 13 8 2 356 348 338 319 300 280 253 236 215 203 205 210 216 217 213 207 207 214 233 245 232 233 239 238 229
235 236 248 257 266 285 308 333 350 346 341 346 0 13 16 15 11 9 7 1 349 335 313 281 258 239 229 218 212 215 218 218 219 217 220 226 236 245 248 251 254 251 240
244 241 246 253 259 272 284 294 311 326 328 331 350 10 17 18 15 12 11 5 353 338 318 289 264 248 237 230 224 224 225 227 228 229 232 237 242 247 251 256 259 257 246
256 248 246 251 257 267 278 287 288 299 312 322 341 3 12 18 16 11 5 360 353 345 326 296 268 253 243 237 234 235 236 237 238 237 238 240 243 248 254 258 260 260 250
269 259 255 255 259 267 276 284 283 283 294 307 326 355 8 14 15 10 359 352 350 346 337 305 270 255 249 244 241 241 242 243 243 243 243 243 245 249 256 259 256 256 251
268 258 256 258 262 267 275 281 282 280 283 293 306 332 352 3 6 8 2 351 347 343 334 308 278 262 254 249 243 243 244 245 245 246 246 246 248 251 254 254 251 251 249
265 259 257 259 263 268 272 275 277 280 282 287 295 311 330 345 352 354 358 352 349 345 333 306 283 267 257 253 251 249 248 246 245 245 247 248 249 249 249 247 244 246 249
267 262 259 260 263 266 268 270 274 278 281 283 286 294 308 327 338 341 344 342 339 340 338 318 291 270 257 253 253 253 254 251 246 246 248 251 250 248 246 243 240 243 247
272 267 262 262 264 265 267 270 276 281 281 280 281 284 292 306 320 326 326 326 324 326 327 320 297 277 262 255 253 253 256 255 247 246 250 252 249 245 243 244 240 242 243
277 273 269 269 268 265 265 273 281 285 284 282 283 284 289 298 306 310 312 311 308 308 309 307 299 283 270 261 256 254 255 255 248 246 248 248 246 242 241 240 240 243 242
279 277 274 271 268 264 264 269 276 280 281 283 287 286 284 294 299 301 300 298 296 296 296 296 291 282 272 265 258 255 254 252 245 243 243 242 241 238 235 235 239 244 238
276 276 275 273 269 268 267 268 270 275 281 286 288 286 281 288 294 296 294 291 288 288 287 285 283 277 269 263 258 254 252 247 239 240 242 238 233 228 226 228 234 238 231
270 272 274 273 272 271 271 273 276 280 286 290 290 288 288 290 293 293 292 288 285 283 280 278 278 275 265 259 255 251 246 240 236 240 241 233 224 222 224 226 230 232 226
267 268 269 271 272 272 274 278 281 285 288 289 289 292 294 295 293 291 290 285 280 278 277 275 274 271 260 253 250 247 244 239 236 235 235 229 220 221 225 229 230 229 225
262 263 265 266 267 270 274 278 282 284 287 289 290 291 292 292 291 288 286 282 277 275 273 270 268 266 256 250 246 241 241 240 233 230 231 228 219 218 224 230 232 228 225
253 254 258 261 263 266 271 274 278 283 291 294 293 293 293 293 291 288 286 283 280 276 269 265 262 258 253 249 247 242 240 239 231 227 228 228 221 217 220 227 231 228 225
241 242 245 254 259 266 270 272 278 287 294 295 294 295 295 294 291 288 287 285 281 277 270 262 258 254 251 249 246 242 241 239 230 226 227 229 226 219 217 221 227 228 227
Height
5893 5893 5892 5891 5889 5888 5888 5887 5887 5886 5885 5884 5883 5882 5881 5880 5879 5878 5878 5878 5877 5877 5877 5877 5877 5878 5879 5881 5883 5885 5886 5887 5888 5889 5890 5890 5891 5891 5892 5893 5895 5897 5899
5894 5894 5893 5892 5891 5890 5889 5889 5888 5888 5886 5885 5883 5882 5881 5880 5879 5878 5877 5877 5877 5876 5876 5876 5875 5876 5877 5879 5882 5884 5885 5886 5887 5889 5890 5890 5890 5890 5890 5892 5894 5896 5897
5894 5894 5894 5893 5892 5891 5890 5890 5889 5889 5887 5886 5884 5883 5881 5880 5879 5878 5877 5877 5876 5875 5875 5874 5873 5873 5874 5877 5880 5883 5884 5886 5887 5888 5889 5890 5890 5890 5890 5891 5892 5894 5896
5894 5894 5894 5893 5892 5891 5890 5890 5890 5889 5888 5887 5885 5883 5881 5880 5879 5878 5877 5876 5875 5874 5874 5873 5871 5870 5872 5874 5878 5881 5883 5885 5887 5888 5889 5890 5890 5890 5890 5890 5892 5893 5894
5894 5894 5894 5893 5892 5891 5891 5890 5890 5889 5888 5887 5886 5884 5882 5880 5878 5878 5876 5875 5874 5874 5872 5871 5870 5869 5870 5872 5876 5880 5882 5884 5886 5888 5889 5890 5890 5890 5890 5891 5891 5892 5893
5893 5894 5894 5893 5893 5892 5891 5891 5890 5890 5889 5887 5886 5884 5882 5880 5878 5877 5876 5875 5873 5873 5872 5871 5870 5869 5869 5871 5875 5878 5881 5883 5885 5887 5888 5889 5890 5890 5890 5891 5891 5891 5892
5892 5893 5894 5893 5893 5892 5891 5891 5890 5890 5889 5888 5886 5883 5881 5880 5878 5876 5875 5874 5873 5872 5871 5871 5870 5870 5870 5872 5874 5878 5881 5883 5884 5885 5887 5888 5889 5890 5890 5891 5891 5891 5892
5891 5892 5893 5893 5893 5893 5892 5891 5890 5889 5889 5888 5886 5883 5881 5879 5878 5876 5875 5874 5872 5871 5871 5871 5871 5870 5871 5872 5875 5878 5880 5882 5883 5884 5885 5886 5887 5888 5889 5890 5890 5891 5891
5890 5891 5892 5893 5893 5893 5893 5892 5891 5890 5889 5887 5885 5883 5881 5879 5877 5875 5874 5873 5872 5871 5870 5871 5871 5871 5871 5873 5875 5877 5879 5880 5881 5883 5884 5885 5886 5887 5888 5888 5889 5890 5890
5889 5890 5891 5892 5892 5893 5893 5892 5891 5890 5888 5886 5884 5882 5880 5878 5876 5874 5873 5872 5871 5870 5870 5870 5871 5871 5872 5873 5875 5877 5878 5879 5881 5882 5884 5885 5886 5887 5887 5888 5888 5889 5889
5889 5889 5890 5890 5891 5892 5892 5891 5890 5889 5887 5886 5884 5881 5879 5877 5875 5873 5872 5871 5870 5869 5869 5869 5870 5870 5871 5872 5874 5876 5877 5879 5881 5882 5883 5884 5885 5886 5887 5887 5888 5888 5888
5887 5888 5888 5889 5889 5890 5891 5890 5889 5888 5886 5885 5883 5880 5878 5877 5874 5873 5871 5870 5869 5868 5868 5868 5868 5869 5870 5871 5872 5873 5876 5878 5880 5881 5882 5883 5884 5885 5886 5886 5886 5886 5887
5886 5886 5886 5887 5887 5888 5888 5889 5888 5887 5885 5884 5882 5879 5877 5875 5874 5871 5870 5869 5868 5867 5866 5866 5866 5867 5867 5868 5870 5871 5873 5875 5877 5879 5880 5881 5882 5883 5884 5884 5884 5884 5885
5884 5884 5884 5885 5885 5885 5885 5886 5886 5885 5884 5882 5880 5878 5875 5874 5872 5870 5869 5868 5867 5865 5864 5863 5863 5864 5865 5866 5867 5869 5870 5872 5874 5876 5877 5878 5879 5880 5880 5881 5882 5882 5883
5883 5883 5882 5882 5882 5882 5882 5882 5882 5882 5881 5879 5878 5876 5874 5872 5871 5869 5868 5866 5865 5864 5862 5861 5861 5861 5862 5863 5864 5866 5867 5868 5869 5871 5873 5874 5875 5876 5877 5878 5878 5879 5880
5881 5880 5879 5879 5878 5879 5879 5879 5878 5878 5877 5876 5875 5873 5872 5871 5869 5868 5866 5864 5863 5862 5861 5860 5859 5859 5859 5860 5861 5862 5863 5864 5865 5866 5868 5869 5871 5872 5872 5873 5875 5876 5877
5878 5878 5876 5875 5874 5874 5874 5874 5874 5874 5873 5873 5872 5870 5870 5868 5867 5865 5864 5862 5861 5859 5859 5858 5857 5857 5857 5856 5857 5858 5859 5860 5861 5862 5863 5865 5866 5867 5868 5869 5871 5872 5873
5875 5875 5874 5872 5871 5871 5870 5870 5870 5870 5870 5869 5868 5867 5866 5866 5864 5863 5862 5860 5858 5857 5856 5855 5854 5854 5853 5853 5853 5854 5855 5856 5857 5858 5859 5860 5861 5862 5864 5865 5867 5869 5870
5870 5870 5870 5870 5869 5868 5867 5866 5865 5865 5865 5865 5864 5863 5862 5862 5861 5860 5858 5857 5856 5854 5852 5852 5851 5850 5849 5849 5849 5850 5851 5851 5852 5854 5855 5856 5856 5858 5860 5861 5863 5865 5867
5865 5865 5865 5865 5865 5864 5863 5863 5862 5862 5861 5860 5860 5859 5858 5857 5856 5855 5854 5853 5852 5850 5849 5847 5847 5846 5845 5844 5844 5845 5846 5847 5848 5850 5851 5852 5853 5854 5856 5858 5860 5862 5863
5860 5860 5859 5859 5859 5859 5858 5858 5858 5858 5857 5856 5855 5854 5854 5853 5851 5850 5849 5848 5846 5845 5844 5843 5842 5841 5840 5839 5839 5840 5841 5843 5845 5846 5847 5848 5849 5850 5852 5854 5856 5858 5860
5854 5854 5854 5854 5853 5853 5853 5854 5854 5853 5853 5852 5851 5850 5849 5848 5846 5845 5843 5842 5841 5840 5839 5838 5837 5836 5836 5835 5835 5836 5837 5839 5841 5842 5843 5844 5845 5847 5849 5850 5852 5854 5856
5847 5848 5848 5848 5848 5848 5848 5849 5849 5848 5848 5847 5846 5845 5844 5842 5841 5839 5838 5836 5835 5834 5833 5831 5831 5831 5831 5830 5830 5831 5832 5834 5836 5838 5840 5840 5841 5843 5845 5846 5848 5850 5852
5841 5841 5842 5843 5843 5844 5844 5844 5844 5844 5843 5843 5841 5840 5838 5836 5834 5833 5831 5830 5829 5827 5826 5825 5825 5825 5825 5825 5825 5826 5828 5830 5832 5834 5836 5837 5838 5839 5840 5842 5844 5846 5848
5832 5833 5834 5835 5837 5838 5839 5839 5839 5839 5838 5836 5835 5833 5831 5829 5827 5826 5824 5823 5821 5820 5819 5818 5818 5818 5818 5819 5820 5821 5823 5825 5827 5829 5831 5833 5834 5835 5836 5838 5840 5842 5844
5822 5824 5825 5828 5830 5832 5833 5834 5834 5833 5831 5830 5828 5826 5824 5822 5820 5819 5818 5816 5814 5813 5811 5811 5811 5811 5812 5813 5814 5815 5817 5819 5822 5824 5827 5829 5831 5832 5833 5834 5836 5838 5841